Flag for Canada Weather past 2 weeks in Dieppe, New Brunswick, Canada

Now
61 °F

Passing clouds.


Feels Like: 61 °F
Forecast: 55 / 75 °F
Wind: 9 mph from Southwest

Location: Moncton

Current Time: Jul 29, 2015 at 1:57:08 AM

Latest Report: Jul 29, 2015 at 1:00 AM


Visibility: 15 mi

Pressure: 29.87 "Hg

Humidity: 94%

Dew point: 59 °F

Location of DieppeLocation

Historic Weather in Dieppe — Graph

°F

Dieppe temperature yesterday

Maximum temperature yesterday: 79 °F (at 3:00 PM)
Minimum temperature yesterday: 59 °F (at 2:00 AM)
Average temperature yesterday: 69 °F

Past Weeks' High & Low Weather Summary

 TemperatureHumidityPressure
High82 °F (Jul 14, 2:00 PM)100% (Jul 19, 8:48 AM)30.09 "Hg (Jul 19, 8:48 AM)
Low48 °F (Jul 17, 5:00 AM)35% (Jul 14, 3:00 PM)29.53 "Hg (Jul 22, 1:00 PM)
Average63 °F84%29.86 "Hg
* Reported Midnight between Jul 13 and Jul 14 — Midnight between Jul 28 and Jul 29, Dieppe, Weather by CustomWeather, © 2015

Note: Actual official high and low records may vary slightly from our data, if they occured in-between our weather recording intervals... More about our weather records

Advertising

Dieppe weather history for previous 24 hours

 ConditionsComfort  
Time TempWeatherWind HumidityBarometerVisibility
12:00 AM
Wed, Jul 29
61 °FPassing clouds.8 mph94%29.87 "Hg15 mi
11:00 PM
Tue, Jul 28
63 °FPassing clouds.9 mph88%29.88 "Hg15 mi
10:00 PM64 °FPassing clouds.10 mph88%29.88 "Hg15 mi
9:00 PM68 °FScattered clouds.8 mph78%29.88 "Hg15 mi
8:00 PM72 °FBroken clouds.9 mph73%29.87 "Hg15 mi
7:00 PM75 °FScattered clouds.12 mph69%29.86 "Hg15 mi
6:00 PM75 °FPartly sunny.14 mph69%29.85 "Hg15 mi
5:00 PM77 °FBroken clouds.12 mph65%29.85 "Hg15 mi
4:00 PM77 °FPartly sunny.12 mph69%29.86 "Hg15 mi
3:00 PM79 °FBroken clouds.14 mph61%29.87 "Hg15 mi
2:00 PM75 °FPartly sunny.8 mph74%29.89 "Hg15 mi
1:00 PM75 °FPartly sunny.8 mph74%29.90 "Hg15 mi
12:00 PM73 °FPartly sunny.6 mph78%29.92 "Hg15 mi
11:00 AM72 °FMostly cloudy.6 mph83%29.93 "Hg15 mi
10:00 AM70 °FPartly sunny.2 mph83%29.94 "Hg15 mi
9:00 AM68 °FBroken clouds.8 mph88%29.94 "Hg15 mi
8:00 AM66 °FPartly sunny.6 mph94%29.95 "Hg12 mi
7:00 AM64 °FMostly cloudy.6 mph94%29.96 "Hg8 mi
6:00 AM63 °FMostly cloudy.6 mph100%29.96 "Hg8 mi
5:00 AM63 °FOvercast.5 mph100%29.95 "Hg8 mi
4:00 AM63 °FOvercast.5 mph100%29.96 "Hg15 mi
3:00 AM61 °FPassing clouds.3 mph100%29.98 "Hg15 mi
2:00 AM59 °FFog.5 mph100%29.99 "Hg15 mi
1:00 AM63 °FFog.5 mph94%30.00 "Hg15 mi
Weather by CustomWeather, © 2015

See weather overviewHow to use our weather pages